This demonstration page uses our WeatherBlox Daily Observations layout. Learn more.

Left ArrowRight Arrow

Hourly Observations for September 21, 2021

Temp ( °F °C ) Dew Point ( °F °C ) Humidity (%) Winds ( mph kmh ) Pressure ( in mb ) Visibility ( mi km ) Precip ( " mm )
12:15 am 00:15 Clear 66 19 66 19 100 100 N N/A 30.01 1016 10 16 N/A
12:35 am 00:35 Partly Cloudy 66 19 66 19 100 100 S 6 9 30.02 1017 10 16 N/A
12:55 am 00:55 Mostly Cloudy 66 19 66 19 100 100 S 6 9 30.02 1017 10 16 N/A
1:15 am 01:15 Cloudy 66 19 66 19 100 100 S 7 11 30.03 1017 10 16 N/A
1:35 am 01:35 Cloudy 66 19 66 19 100 100 S 8 13 30.02 1017 10 16 N/A
1:55 am 01:55 Cloudy 66 19 66 19 100 100 S 10 17 30.02 1017 10 16 N/A
2:15 am 02:15 Cloudy 66 19 66 19 100 100 S 9 15 30.02 1017 10 16 N/A
2:35 am 02:35 Cloudy 66 19 66 19 100 100 S 8 13 30.02 1017 10 16 N/A
2:55 am 02:55 Cloudy 66 19 66 19 100 100 N N/A 30.02 1017 10 16 N/A
3:15 am 03:15 Cloudy 66 19 66 19 100 100 N N/A 30.02 1017 10 16 N/A
3:35 am 03:35 Cloudy 66 19 66 19 100 100 N N/A 30.02 1017 10 16 N/A
3:55 am 03:55 Cloudy 66 19 66 19 100 100 N N/A 30.01 1016 10 16 N/A
4:15 am 04:15 Cloudy 66 19 66 19 100 100 N N/A 30.01 1016 10 16 N/A
4:35 am 04:35 Cloudy 66 19 66 19 100 100 S 7 11 30.02 1017 10 16 N/A
4:55 am 04:55 Cloudy 66 19 66 19 100 100 S 8 13 30.01 1016 10 16 N/A
5:15 am 05:15 Cloudy 66 19 66 19 100 100 S 7 11 30.01 1016 10 16 N/A
5:35 am 05:35 Cloudy 66 19 66 19 100 100 SSE 6 9 30.00 1016 10 16 N/A
5:55 am 05:55 Cloudy 66 19 66 19 100 100 S 6 9 30.01 1016 10 16 N/A
6:15 am 06:15 Cloudy 66 19 66 19 100 100 SSE 9 15 30.00 1016 10 16 N/A
6:35 am 06:35 Cloudy 66 19 66 19 100 100 S 8 13 30.01 1016 10 16 N/A
6:55 am 06:55 Cloudy 66 19 66 19 100 100 SSE 9 15 30.02 1017 10 16 N/A
7:15 am 07:15 Cloudy 66 19 66 19 100 100 SSW 6 9 30.02 1017 10 16 N/A
7:35 am 07:35 Cloudy 66 19 66 19 100 100 S 6 9 30.02 1017 10 16 N/A
7:55 am 07:55 Cloudy 66 19 66 19 100 100 SSE 9 15 30.01 1016 10 16 N/A
8:15 am 08:15 Cloudy 66 19 66 19 100 100 S 7 11 30.02 1017 10 16 N/A
8:35 am 08:35 Cloudy 68 20 68 20 100 100 S 7 11 30.02 1017 10 16 N/A
8:55 am 08:55 Cloudy 68 20 68 20 100 100 S 8 13 30.03 1017 10 16 N/A
9:15 am 09:15 Cloudy 68 20 68 20 100 100 SSE 9 15 30.02 1017 10 16 N/A
9:35 am 09:35 Cloudy 68 20 68 20 100 100 S 9 15 30.02 1017 10 16 N/A
9:55 am 09:55 Cloudy 68 20 68 20 100 100 S 12 19 30.03 1017 10 16 N/A
10:15 am 10:15 Cloudy 68 20 68 20 100 100 SSW 12 19 30.04 1017 10 16 N/A
10:35 am 10:35 Cloudy 70 21 70 21 100 100 S 10 17 30.03 1017 10 16 N/A
10:55 am 10:55 Cloudy 72 22 72 22 100 100 SSE 13 20 30.02 1017 10 16 N/A
11:15 am 11:15 Cloudy 72 22 72 22 100 100 SSE 13 20 30.01 1016 10 16 N/A
11:35 am 11:35 Cloudy 72 22 70 21 94 94 S 12 19 30.03 1017 10 16 N/A
11:55 am 11:55 Cloudy 72 22 70 21 94 94 S 6 9 30.04 1017 10 16 N/A
12:15 pm 12:15 Cloudy 72 22 70 21 94 94 SSW 8 13 30.04 1017 7 11 N/A
12:35 pm 12:35 Cloudy 73 23 72 22 94 94 S 7 11 30.04 1017 5 8 N/A
12:55 pm 12:55 Cloudy 73 23 70 21 89 89 SSW 6 9 30.04 1017 10 16 N/A
1:15 pm 13:15 Cloudy 75 24 70 21 83 83 S 3 6 30.04 1017 10 16 N/A
1:35 pm 13:35 Cloudy 75 24 72 22 89 89 SE 7 11 30.03 1017 5 8 N/A
1:55 pm 13:55 Cloudy 75 24 70 21 83 83 SSW 5 7 30.03 1017 7 11 N/A
2:15 pm 14:15 Cloudy 77 25 70 21 79 79 WSW 3 6 30.01 1016 10 16 N/A
2:35 pm 14:35 Mostly Cloudy 77 25 70 21 79 79 S 3 6 30.00 1016 10 16 N/A
2:55 pm 14:55 Cloudy 77 25 70 21 79 79 W 3 6 29.99 1016 10 16 N/A
3:15 pm 15:15 Cloudy 75 24 70 21 83 83 N N/A 30.00 1016 10 16 N/A
3:35 pm 15:35 Cloudy 75 24 70 21 83 83 WNW 3 6 30.00 1016 10 16 N/A
3:55 pm 15:55 Mostly Cloudy 73 23 68 20 83 83 NNW 12 19 30.00 1016 10 16 N/A
4:15 pm 16:15 Cloudy 68 20 68 20 100 100 NW 8 13 30.01 1016 4 6 N/A
4:35 pm 16:35 Cloudy 68 20 68 20 100 100 NNE 5 7 30.01 1016 10 16 N/A
4:55 pm 16:55 Cloudy 70 21 70 21 100 100 N 5 7 30.01 1016 10 16 N/A
5:15 pm 17:15 Cloudy 70 21 70 21 100 100 NW 5 7 30.02 1016 10 16 N/A
5:35 pm 17:35 Cloudy 70 21 70 21 100 100 NNE 5 7 30.01 1016 10 16 N/A
5:55 pm 17:55 Cloudy 70 21 70 21 100 100 NNE 3 6 30.02 1016 10 16 N/A
6:15 pm 18:15 Cloudy 70 21 70 21 100 100 NE 3 6 30.01 1016 7 11 N/A
6:35 pm 18:35 Cloudy 70 21 70 21 100 100 N N/A 30.00 1016 10 16 N/A
6:55 pm 18:55 Mostly Cloudy 70 21 70 21 100 100 NNE 5 7 30.00 1016 10 16 N/A
7:15 pm 19:15 Partly Cloudy 70 21 70 21 100 100 NE 3 6 29.99 1015 10 16 N/A
7:35 pm 19:35 Mostly Cloudy 68 20 68 20 100 100 N N/A 30.00 1016 10 16 N/A
7:55 pm 19:55 Cloudy 68 20 68 20 100 100 N N/A 29.99 1016 10 16 N/A
8:15 pm 20:15 Mostly Cloudy 68 20 68 20 100 100 N N/A 30.00 1016 10 16 N/A
8:35 pm 20:35 Cloudy 68 20 68 20 100 100 N N/A 30.00 1016 10 16 N/A
8:55 pm 20:55 Cloudy 68 20 68 20 100 100 N N/A 30.00 1016 10 16 N/A
9:15 pm 21:15 Cloudy 68 20 68 20 100 100 N N/A 30.00 1016 10 16 N/A
9:35 pm 21:35 Cloudy 68 20 68 20 100 100 NW 18 30 30.01 1016 5 8 N/A
9:55 pm 21:55 Cloudy 64 18 64 18 100 100 NW 12 19 30.02 1017 7 11 N/A
10:15 pm 22:15 Cloudy 63 17 63 17 100 100 NNW 10 17 30.04 1017 5 8 N/A
10:35 pm 22:35 Cloudy 61 16 61 16 100 100 NNW 20 31 30.04 1017 3 4 N/A
10:55 pm 22:55 Cloudy 61 16 61 16 100 100 NNW 20 31 30.03 1017 1 2 N/A
11:15 pm 23:15 Cloudy 61 16 61 16 100 100 NNW 14 22 30.04 1017 4 6 N/A
11:35 pm 23:35 Cloudy 59 15 59 15 100 100 NNW 16 26 30.04 1017 1 2 N/A
11:55 pm 23:55 Cloudy 59 15 59 15 100 100 NNW 15 24 30.03 1017 1 2 N/A

Powered by AerisWeather